SCP
2 3 4 3 2 1 1 0 0 0 0 0 0 0 0 0 0 0 0 0 0 0 0 0 0 0 0 0 0 0 0 0 0 0 0 0 0 0 0 0 0 0 0
2 3 3 3 2 1 1 0 0 0 0 0 0 0 0 0 0 0 0 0 0 0 0 0 0 0 0 0 0 0 0 0 0 0 0 0 0 0 0 0 0 0 0
2 2 3 3 2 1 1 0 0 0 0 0 0 0 0 0 0 0 0 0 0 0 0 0 0 0 0 0 0 0 0 0 0 0 0 0 0 0 0 0 0 0 0
1 2 2 2 2 1 0 0 0 0 0 0 0 0 0 0 0 0 0 0 0 0 0 0 0 0 0 0 0 0 0 0 0 0 0 0 0 0 0 0 0 0 0
1 1 1 1 1 1 0 0 0 0 0 0 0 0 0 0 0 0 0 0 0 0 0 0 0 0 0 0 0 0 0 0 0 0 0 0 0 0 0 0 0 0 0
1 1 1 1 1 1 0 0 0 0 0 0 0 0 0 0 0 0 0 0 0 0 0 0 0 0 0 0 0 0 0 0 0 0 0 0 0 0 0 0 0 0 0
1 1 1 1 1 1 0 0 0 0 0 0 0 0 0 0 0 0 0 0 0 0 0 0 0 0 0 0 0 0 0 0 0 0 0 0 0 0 0 0 0 0 0
1 1 1 1 1 1 0 0 0 0 0 0 0 0 0 0 0 0 0 0 0 0 0 0 0 0 0 0 0 0 0 0 0 0 0 0 0 0 0 0 0 0 0
1 1 1 1 1 1 0 0 0 0 0 0 0 0 0 0 0 0 0 0 0 0 0 0 0 0 0 0 0 0 0 0 0 0 0 0 0 0 0 0 0 0 0
1 1 1 1 1 1 0 0 0 0 0 0 0 0 0 0 0 0 0 0 0 0 0 0 0 0 0 0 0 0 0 0 0 0 0 0 0 0 0 0 0 0 0
0 0 0 0 1 0 0 0 0 0 0 0 0 0 0 0 0 0 0 0 0 0 0 0 0 0 0 0 0 0 0 0 0 0 0 0 0 0 0 0 0 0 0
1 0 0 1 1 1 0 0 0 0 0 0 0 0 0 0 0 0 0 0 0 0 0 0 0 0 0 0 0 0 0 0 0 0 0 0 0 0 0 0 0 0 0
1 1 0 1 1 1 1 0 0 0 0 0 0 0 0 0 0 0 0 0 0 0 0 0 0 0 0 0 0 0 0 0 0 0 0 0 0 0 0 0 0 0 0
1 1 0 1 1 1 1 1 0 0 0 0 0 0 0 0 0 0 0 0 0 0 0 0 0 0 0 0 0 0 0 0 0 0 0 0 0 0 0 0 0 0 0
1 1 0 0 1 1 1 1 1 0 0 0 0 0 0 0 0 0 0 0 0 0 0 0 0 0 0 0 0 0 0 0 0 0 0 0 0 0 0 0 0 0 0
1 1 0 0 0 1 1 1 1 0 0 0 0 0 0 0 0 0 0 0 0 0 0 0 0 0 0 0 0 0 0 0 0 0 0 0 0 0 0 0 0 0 0
0 0 0 0 0 0 1 1 1 0 0 0 0 0 0 0 0 0 0 0 0 0 0 0 0 0 0 0 0 0 0 0 0 0 0 0 0 0 0 0 0 0 0
0 0 0 0 0 0 0 0 0 0 0 0 0 0 0 0 0 0 0 0 0 0 0 0 0 0 0 0 0 0 0 0 0 0 0 0 0 0 0 0 0 0 0
0 0 0 0 0 0 0 0 0 0 0 0 0 0 0 0 0 0 0 0 0 0 0 0 0 0 0 0 0 0 0 0 0 0 0 0 0 0 0 0 0 0 0
0 0 0 0 0 0 0 0 0 0 0 0 0 0 0 0 0 0 0 0 0 0 0 0 0 0 0 0 0 0 0 0 0 0 0 0 0 0 0 0 0 0 0
0 0 0 0 0 0 0 0 0 0 0 0 0 0 0 0 0 0 0 0 0 0 0 0 0 0 0 0 0 0 0 0 0 0 0 0 0 0 0 0 0 0 0
0 0 0 0 0 0 0 0 0 0 0 0 0 0 0 0 0 0 0 0 0 0 0 0 0 0 0 0 0 0 0 0 0 0 0 0 0 0 0 0 0 0 0
0 0 0 0 0 0 0 0 0 0 0 0 0 0 0 0 0 0 0 0 0 0 0 0 0 0 0 0 0 0 0 0 0 0 0 0 0 0 0 0 0 0 0
0 0 0 0 0 0 0 0 0 0 0 0 0 0 0 0 0 0 0 0 0 0 0 0 0 0 0 0 0 0 0 0 0 0 0 0 0 0 0 0 0 0 0
0 0 0 0 0 0 0 0 0 0 0 0 0 0 0 0 0 0 0 0 0 0 0 0 0 0 0 0 0 0 0 0 0 0 0 0 0 0 0 0 0 0 0
0 0 0 0 0 0 0 0 0 0 0 0 0 0 0 0 0 0 0 0 0 0 0 0 0 0 0 0 0 0 0 0 0 0 0 0 0 0 0 0 0 0 0
Wind_Speed
8 8 7 7 8 7 8 7 6 7 6 5 5 5 5 5 5 4 3 8 9 9 10 10 9 8 7 6 5 4 3 2 2 2 3 3 4 5 6 7 8 9 10
9 9 9 8 8 8 8 8 8 7 5 5 5 5 6 6 5 5 4 5 8 8 9 9 8 8 7 6 5 3 2 1 1 1 2 3 4 5 6 7 8 9 10
10 9 9 9 9 9 10 8 7 6 5 5 5 6 5 5 5 6 5 3 4 6 8 9 8 7 6 6 4 3 2 1 1 1 2 3 4 5 6 7 8 9 10
12 10 9 10 10 10 9 8 8 6 6 5 5 4 4 5 6 5 4 4 3 3 5 7 8 7 6 5 5 4 3 2 2 3 3 4 5 6 7 8 9 10 11
12 10 9 9 11 10 9 10 8 7 6 6 5 4 4 4 5 5 5 5 4 4 3 5 6 7 6 6 5 5 4 3 3 4 4 5 6 7 8 9 9 10 11
12 10 9 11 11 10 10 10 10 7 7 7 6 4 3 3 3 4 5 4 4 5 4 4 3 3 6 6 6 5 5 5 5 5 5 6 7 8 8 9 10 11 12
12 10 9 11 11 11 12 12 9 10 7 6 5 3 1 0 3 4 4 4 4 5 5 4 3 3 2 5 6 6 6 6 6 6 6 7 8 8 9 10 11 11 12
13 11 11 11 11 10 13 13 10 8 6 7 7 6 3 1 2 3 3 4 5 4 4 5 5 4 3 2 4 6 6 7 7 7 7 8 8 9 10 10 11 12 12
12 12 12 12 11 11 12 14 13 11 9 7 7 7 6 6 3 2 4 4 5 4 4 4 5 5 5 3 3 4 6 7 8 8 8 9 9 10 10 11 11 12 13
13 12 13 13 12 11 12 13 12 10 11 10 6 3 3 5 5 3 2 3 4 5 5 5 5 5 5 4 4 6 6 7 8 8 8 9 10 10 11 11 12 12 13
11 12 13 13 12 11 13 13 11 12 10 10 8 5 3 2 3 4 4 3 2 3 4 5 4 4 4 4 4 5 6 6 7 7 8 9 10 10 11 11 12 12 13
8 11 12 13 13 11 13 13 13 13 10 9 7 6 6 5 5 4 4 4 3 3 3 3 4 4 4 4 5 7 6 6 6 6 7 8 9 10 11 11 11 12 13
7 10 10 11 11 12 12 12 13 13 12 12 9 7 5 5 4 4 4 3 2 1 1 2 4 4 4 4 4 6 6 6 5 6 6 7 8 9 10 10 11 11 12
8 9 10 11 11 12 13 12 11 12 11 11 11 9 5 5 4 4 5 5 3 1 2 3 1 3 4 4 4 6 3 5 5 5 5 5 6 7 9 9 10 10 11
7 9 11 11 12 13 13 13 11 13 12 11 11 10 7 5 5 4 4 5 6 4 5 4 2 3 3 3 4 3 3 4 4 4 4 5 5 6 7 8 8 9 10
9 9 11 12 12 13 13 13 11 11 13 11 9 10 8 5 5 4 5 4 4 5 4 3 3 2 3 3 4 3 3 3 3 4 4 4 5 5 6 7 8 8 9
9 10 11 12 12 13 13 12 12 13 14 12 10 11 11 8 6 5 5 4 4 4 4 2 1 1 2 3 2 1 1 1 1 4 4 4 4 5 6 7 7 8 9
8 9 10 11 12 13 13 13 13 14 14 14 13 12 11 8 9 7 6 6 5 4 4 4 2 2 2 3 2 1 1 0 1 3 3 3 4 5 6 6 7 7 8
8 9 10 11 13 13 13 13 13 14 14 14 13 13 12 11 10 7 7 6 5 4 3 4 2 2 1 1 2 1 0 0 1 2 2 3 4 4 6 6 6 7 8
7 9 10 11 12 12 13 12 12 13 12 11 11 12 12 13 12 11 8 8 6 5 4 4 2 2 2 1 2 1 0 0 1 1 2 3 4 4 6 6 6 7 8
7 8 9 9 10 10 11 11 12 12 12 11 10 11 11 12 13 11 9 8 8 6 5 4 3 2 2 2 2 2 1 0 1 1 2 2 2 2 3 5 6 7 8
7 8 9 9 9 9 12 14 13 12 12 12 11 9 9 12 14 15 14 13 12 9 8 6 4 4 4 3 3 2 2 1 2 1 1 2 1 2 2 2 6 7 8
6 8 9 9 9 10 13 14 15 11 11 11 11 10 7 9 13 11 12 12 10 10 11 8 6 6 5 5 5 4 3 2 2 1 0 2 1 2 2 3 7 7 8
6 7 8 9 8 9 13 13 14 11 9 10 10 11 10 10 11 12 10 8 6 5 6 5 6 5 4 5 6 5 4 3 1 1 1 1 2 2 3 3 6 8 9
5 6 6 7 8 8 13 14 13 9 8 9 9 10 11 10 15 17 13 10 8 5 6 10 9 9 10 9 7 5 4 3 0 1 1 0 1 3 3 2 4 8 10
4 5 5 6 7 8 12 14 14 8 8 7 7 8 12 13 16 18 13 12 11 8 8 8 8 8 7 7 8 5 5 3 2 1 1 0 0 1 3 3 2 3 4
Wind_Direction
180 174 172 172 166 161 162 160 160 163 166 165 163 158 158 159 160 159 163 164 161 161 161 159 156 153 152 148 141 135 128 110 83 56 36 22 12 6 0 358 355 352 348
182 179 173 177 171 167 167 166 167 169 170 167 167 164 162 162 162 161 164 166 165 168 171 167 165 163 162 160 156 154 149 133 79 27 6 360 352 348 346 346 344 342 340
183 184 179 179 176 171 167 165 164 162 165 166 167 165 162 165 166 166 165 164 165 169 172 176 174 175 174 173 174 177 180 206 286 325 328 329 332 333 334 335 335 334 332
185 182 185 183 177 171 168 167 166 163 167 166 163 166 164 164 168 170 168 167 167 168 176 179 182 185 185 188 193 198 207 231 262 287 303 311 317 321 323 325 326 327 328
188 183 186 184 176 174 171 171 168 162 164 165 163 160 165 169 170 169 172 176 177 174 177 186 190 197 201 203 208 216 226 241 261 280 291 299 305 311 315 318 320 321 323
189 184 187 185 180 177 173 172 167 163 163 163 157 152 164 178 175 176 181 180 181 181 180 182 182 199 205 211 217 226 239 250 262 275 287 295 301 307 311 314 315 317 318
186 187 188 186 185 184 177 170 165 164 162 153 134 128 65 198 194 191 185 181 188 187 181 184 179 181 201 216 224 232 245 258 266 275 284 291 298 304 307 309 312 314 317
187 188 187 188 188 186 178 174 164 161 163 163 150 142 146 239 253 212 193 192 194 186 191 192 185 186 185 192 221 234 251 263 272 279 285 290 295 299 302 307 311 313 314
192 190 191 187 187 189 186 179 173 166 166 171 164 155 159 192 199 236 214 202 192 190 196 192 194 193 189 191 207 234 250 261 270 278 286 292 296 299 303 306 309 312 314
192 192 193 190 187 191 189 183 177 170 165 170 174 172 157 150 156 180 237 216 201 200 198 196 195 195 191 192 206 221 240 257 267 278 287 292 296 300 303 306 310 313 316
195 193 196 194 190 193 191 182 176 175 174 173 171 162 151 142 138 149 188 204 217 217 204 198 193 195 195 193 202 220 233 251 264 276 286 292 297 302 305 309 312 315 317
198 195 196 196 191 193 192 184 179 178 180 176 172 169 165 165 172 159 172 186 201 224 209 198 196 198 196 195 207 215 225 244 261 275 287 295 300 303 306 310 312 314 317
202 197 196 195 191 195 194 184 182 182 181 182 182 183 180 177 159 152 150 162 177 215 208 216 206 193 193 191 206 211 225 241 255 272 287 298 304 306 309 312 314 317 319
204 198 200 194 192 193 192 188 185 186 183 186 189 184 181 184 170 162 157 151 152 198 224 228 206 196 191 187 202 199 222 239 254 270 285 294 302 307 310 313 315 319 323
202 198 200 194 194 193 191 188 190 188 185 189 190 188 186 187 182 174 162 158 157 180 217 214 203 195 187 183 192 190 208 239 255 271 282 292 300 307 310 315 319 322 324
199 197 203 198 196 194 190 192 188 187 188 189 186 188 191 186 181 176 174 171 164 167 197 203 199 179 174 177 184 181 207 227 249 269 280 291 300 306 313 316 318 320 322
198 200 202 200 195 195 190 191 190 187 190 189 187 192 194 183 181 180 175 171 169 157 177 194 156 147 160 168 165 172 182 200 247 271 282 297 304 310 314 317 318 319 323
201 204 204 200 196 194 192 193 191 190 191 191 191 190 192 184 185 181 179 180 176 168 161 180 170 155 165 170 162 163 168 201 260 281 291 305 312 317 321 321 323 324 325
208 207 201 199 197 193 192 195 195 193 194 194 191 191 190 184 189 183 181 180 173 163 151 155 169 148 141 134 127 104 82 355 316 310 314 323 318 327 333 331 330 329 328
212 206 200 199 198 193 192 192 193 192 191 191 191 192 191 190 190 183 183 180 167 159 148 147 157 151 141 125 129 144 319 314 318 342 331 328 331 341 344 340 335 331 330
215 204 197 198 195 191 190 189 191 190 188 188 189 193 193 189 185 183 180 176 170 167 159 160 168 157 165 162 178 161 185 298 302 348 321 318 330 329 329 332 332 332 336
213 205 198 196 198 197 190 187 188 190 188 188 189 190 186 183 181 181 178 174 174 174 176 174 180 182 187 175 151 151 145 124 281 325 340 303 344 306 304 303 331 342 342
210 206 198 194 202 197 184 186 187 187 188 188 186 182 181 182 177 177 172 168 174 178 176 174 175 184 176 174 159 157 165 170 209 273 20 290 325 299 302 322 335 346 347
207 203 202 196 198 195 183 182 179 183 184 183 184 181 178 176 176 167 160 156 156 164 167 161 163 165 157 156 162 161 154 127 90 7 54 289 314 301 313 314 327 344 347
214 204 203 198 198 194 183 177 173 177 179 180 180 178 175 174 169 162 158 153 147 140 128 130 126 125 126 130 134 121 120 110 99 293 37 85 303 311 312 306 322 341 345
221 210 208 203 198 194 183 177 175 175 173 172 172 174 175 172 168 165 164 161 161 159 140 124 113 109 110 120 125 137 149 138 133 226 247 119 309 345 320 307 312 323 333